Regional Weather Roundup
Issued by NWS

Home | Current Version | Previous Version | Graphics & Text | Print | Product List | Glossary On
Versions: 1 2 3 4 5 6 7 8 9 10 11 12 13 14 15 16 17 18 19 20 21 22 23 24 25 26 27 28 29 30 31 32 33 34 35 36 37 38 39 40 41 42 43 44 45 46 47 48 49 50
000
ASUS45 KCYS 010610
RWRWY

WYOMING REGIONAL WEATHER ROUNDUP
NATIONAL WEATHER SERVICE CHEYENNE WY
1200 AM MDT MON SEP 01 2014

NOTE:  "FAIR" INDICATES FEW OR NO CLOUDS BELOW 12,000 FEET
WITH NO SIGNIFICANT WEATHER AND/OR OBSTRUCTIONS TO VISIBILITY.

WYZ001-010700-
YELLOWSTONE NATIONAL PARK

CITY           SKY/WX    TMP DP  RH WIND       PRES   REMARKS
LK YELLOWSTONE   N/A     39  36  89 CALM      30.17S
6HR MIN TEMP:  38; 6HR MAX TEMP:  48;

W YELLOWSTONE  NOT AVBL

$$
WYZ002>013-054>058-071-098>099-010700-
NORTHERN WYOMING

CITY           SKY/WX    TMP DP  RH WIND       PRES   REMARKS
JACKSON        MOCLDY    43  39  87 N5        30.10F
CODY           CLOUDY    55  45  67 NW9       30.00S
GREYBULL       CLOUDY    55  50  83 CALM      29.97R
6HR MIN TEMP:  54; 6HR MAX TEMP:  67;

WORLAND        PTCLDY    50  46  86 S3        29.98R
6HR MIN TEMP:  50; 6HR MAX TEMP:  68; 6HR PCP: TRACE;

SHERIDAN       MOCLDY    50  45  83 S5        29.95F
6HR MIN TEMP:  50; 6HR MAX TEMP:  65; 6HR PCP:  0.04;

BUFFALO        MOCLDY    52  42  69 W7        30.00R
6HR MIN TEMP:  52; 6HR MAX TEMP:  62; 6HR PCP:  0.02;

GILLETTE       PTCLDY    50  45  83 W8        29.94F
6HR MIN TEMP:  50; 6HR MAX TEMP:  60;

HULETT         FAIR      46  45  93 MISG      29.94
NEWCASTLE      FAIR      46  46 100 CALM      29.96

$$
WYZ014>020-022>026-101>103-010700-
CENTRAL WYOMING

CITY           SKY/WX    TMP DP  RH WIND       PRES   REMARKS
BIG PINEY      CLEAR     39  34  82 NW7       30.14F WCI  34
6HR MIN TEMP:  39; 6HR MAX TEMP:  61;

PINEDALE       CLEAR     36  36 100 NW5       30.15S WCI  32
DUBOIS         FAIR      41  34  75 W10       30.10S
LANDER         CLEAR     52  38  58 SW7       30.03S
6HR MIN TEMP:  52; 6HR MAX TEMP:  67;

RIVERTON       PTCLDY    50  40  68 W3        30.04S
6HR MIN TEMP:  49; 6HR MAX TEMP:  64;

CASPER         CLOUDY    46  43  89 W5        30.03R
6HR MIN TEMP:  44; 6HR MAX TEMP:  63;

DOUGLAS        CLEAR     50  45  83 NW3       30.02R
6HR MIN TEMP:  48; 6HR MAX TEMP:  64;


$$
WYZ021-027>030-104>119-010700-
SOUTHERN WYOMING

CITY           SKY/WX    TMP DP  RH WIND       PRES   REMARKS
EVANSTON       CLEAR     50  28  42 S5        30.14F
6HR MIN TEMP:  49; 6HR MAX TEMP:  63;

KEMMERER       CLEAR     45  32  61 N5        30.15F
FORT BRIDGER   FAIR      49  31  49 SW8       30.17S
ROCK SPRINGS   CLEAR     50  34  54 NW9       30.13S
6HR MIN TEMP:  50; 6HR MAX TEMP:  65;

DIXON          CLOUDY    50  44  80 CALM      30.15S
RAWLINS        CLEAR     49  36  61 SW3       30.10R
6HR MIN TEMP:  46; 6HR MAX TEMP:  63;

SARATOGA       MOCLDY    46  37  71 SW8       30.13S
LARAMIE        PTCLDY    48  34  58 W3        30.11R
6HR MIN TEMP:  48; 6HR MAX TEMP:  63;

CHEYENNE       CLEAR     50  42  74 SW5       30.07R
6HR MIN TEMP:  48; 6HR MAX TEMP:  70;

TORRINGTON     CLEAR     54  48  80 NW8       29.96S
6HR MIN TEMP:  51; 6HR MAX TEMP:  65;

PINE BLUFFS    FAIR      46  45  93 NW8       30.02S

$$



USA.gov is the U.S. government's official web portal to all federal, state and local government web resources and services.